FW9451 Weather Reports


Display with metric or nautical units.
time (UTC)temp
F
wind
direction
speed
MPH
gust
MPH
rain 1hr
in
rain 24hr
in
rain mn
in
humidity
%
barometer
mb
20260506204556 56 150 3.0 10.0 0.07 0.25 0.24 93 1006.7
20260506203052 56 156 3.0 10.0 0.06 0.22 0.21 92 1006.7
20260506201551 56 169 5.0 17.0 0.05 0.20 0.19 92 1006.8
20260506200051 56 150 3.0 15.0 0.10 0.20 0.19 92 1006.8
20260506194550 56 208 5.0 11.0 0.15 0.18 0.17 91 1007.3
20260506193049 56 195 6.0 14.0 0.15 0.16 0.15 91 1007.2
20260506191549 55 192 5.0 13.0 0.14 0.15 0.14 90 1007.1
20260506190052 55 251 6.0 12.0 0.09 0.10 0.09 89 1007.6
20260506184551 55 173 5.0 15.0 0.02 0.03 0.02 87 1007.3
20260506183049 57 197 6.0 18.0 0.00 0.01 0.00 83 1007.3
20260506181547 59 146 7.0 18.0 0.00 0.01 0.00 78 1007.2
20260506180047 60 197 5.0 14.0 0.00 0.01 0.00 76 1007.2
20260506174550 60 117 4.0 11.0 0.00 0.01 0.00 76 1007.2
20260506173104 60 175 3.0 14.0 0.00 0.01 0.00 77 1007.4
20260506171553 60 176 6.0 12.0 0.00 0.01 0.00 77 1007.6
20260506170059 61 187 3.0 9.0 0.00 0.01 0.00 76 1008.1
20260506164610 61 148 3.0 10.0 0.00 0.01 0.00 76 1008.3
20260506163059 61 161 2.0 12.0 0.00 0.01 0.00 75 1008.6
20260506161551 61 169 4.0 11.0 0.00 0.01 0.00 76 1008.9
20260506160104 60 140 4.0 9.0 0.00 0.01 0.00 77 1009.3
20260506154554 60 153 3.0 9.0 0.00 0.01 0.00 77 1009.6
20260506153047 60 219 2.0 9.0 0.00 0.01 0.00 77 1009.4
20260506151555 60 166 3.0 8.0 0.00 0.01 0.00 77 1009.6
20260506150049 60 195 3.0 9.0 0.00 0.01 0.00 77 1009.3
20260506144548 60 139 2.0 9.0 0.00 0.01 0.00 76 1009.2
20260506143050 60 152 3.0 10.0 0.00 0.01 0.00 75 1008.9
20260506141604 60 128 3.0 8.0 0.00 0.01 0.00 76 1009.1
20260506140050 61 0 3.0 7.0 0.00 0.01 0.00 75 1009.6
20260506134549 61 136 2.0 6.0 0.00 0.01 0.00 76 1009.7
20260506133104 60 213 2.0 7.0 0.00 0.01 0.00 77 1009.7
20260506131555 59 204 2.0 6.0 0.00 0.01 0.00 78 1009.4
20260506130051 59 138 1.0 5.0 0.00 0.01 0.00 77 1009.6
20260506124550 58 178 2.0 6.0 0.00 0.01 0.00 77 1009.5
20260506123051 58 138 2.0 6.0 0.00 0.01 0.00 78 1009.7
20260506121559 57 229 2.0 5.0 0.00 0.01 0.00 79 1010.0
20260506120115 57 145 1.0 5.0 0.00 0.01 0.00 79 1010.0
20260506114550 56 205 2.0 7.0 0.00 0.01 0.00 80 1010.1
20260506113047 55 175 1.0 5.0 0.00 0.01 0.00 81 1010.2
20260506111552 54 175 2.0 5.0 0.00 0.01 0.00 81 1010.3
20260506110049 54 132 0.0 4.0 0.00 0.01 0.00 81 1010.5
20260506104548 54 128 1.0 5.0 0.00 0.01 0.00 81 1010.3
20260506103053 54 0 1.0 4.0 0.00 0.01 0.00 80 1010.2
20260506101551 55 94 1.0 6.0 0.00 0.01 0.00 77 1009.9
20260506100056 57 196 2.0 7.0 0.00 0.01 0.00 76 1009.8
20260506094550 56 171 2.0 8.0 0.00 0.01 0.00 77 1009.8
20260506093055 55 132 3.0 11.0 0.00 0.01 0.00 78 1009.8
20260506091550 54 163 3.0 8.0 0.00 0.01 0.00 79 1009.8
20260506090053 55 157 3.0 8.0 0.00 0.01 0.00 78 1009.7
20260506084553 55 129 2.0 6.0 0.00 0.01 0.00 77 1009.5
20260506083051 56 176 1.0 8.0 0.00 0.01 0.00 75 1009.5
20260506081554 57 157 3.0 10.0 0.00 0.01 0.00 74 1009.2
20260506073059 58 185 6.0 12.0 0.00 0.01 0.00 73 1009.2
20260506071554 58 209 4.0 12.0 0.00 0.01 0.00 73 1009.1
20260506070113 58 184 5.0 14.0 0.00 0.01 0.00 72 1008.8
20260506061551 59 209 6.0 14.0 0.00 0.01 0.00 71 1008.8
20260506044559 59 156 5.0 14.0 0.00 0.01 0.00 72 1008.9
20260506043050 57 125 2.0 5.0 0.00 0.01 0.00 75 1008.7
20260506041556 59 146 3.0 7.0 0.00 0.01 0.00 72 1009.0
20260506040101 59 167 3.0 9.0 0.00 0.01 0.00 72 1009.0
20260506034554 60 150 2.0 8.0 0.00 0.01 0.01 70 1008.8
20260506033052 63 151 3.0 9.0 0.00 0.01 0.01 67 1008.8
20260506031601 64 192 4.0 10.0 0.00 0.01 0.01 67 1008.6
20260506030112 64 211 3.0 11.0 0.00 0.01 0.01 67 1008.7
20260506024549 64 162 5.0 12.0 0.00 0.01 0.01 66 1008.8
20260506023050 63 169 5.0 11.0 0.00 0.01 0.01 67 1009.0
20260506021548 63 176 3.0 8.0 0.00 0.01 0.01 67 1009.1
20260506020051 64 190 4.0 8.0 0.00 0.01 0.01 66 1009.1
20260506014555 64 187 3.0 9.0 0.00 0.01 0.01 66 1009.1
20260506013051 64 183 3.0 8.0 0.00 0.01 0.01 67 1009.1
20260506011556 64 169 3.0 8.0 0.00 0.01 0.01 68 1009.3
20260506010054 64 183 4.0 10.0 0.00 0.01 0.01 68 1009.1
20260506004625 63 153 4.0 9.0 0.01 0.01 0.01 70 1008.7
20260506003056 63 141 3.0 8.0 0.01 0.01 0.01 74 1008.6
20260506001556 63 192 3.0 5.0 0.01 0.01 0.01 76 1008.5
20260506000051 62 169 3.0 6.0 0.01 0.01 0.01 77 1007.2
20260505234612 63 283 2.0 8.0 0.00 0.00 0.00 76 1006.7
20260505233055 66 349 3.0 9.0 0.00 0.00 0.00 67 1007.8
20260505231550 66 330 4.0 10.0 0.00 0.00 0.00 66 1007.6
20260505230054 66 295 5.0 23.0 0.00 0.00 0.00 63 1007.8
20260505224549 66 254 11.0 18.0 0.00 0.00 0.00 58 1006.9
20260505223102 67 207 9.0 25.0 0.00 0.00 0.00 57 1005.3
20260505221559 67 191 9.0 26.0 0.00 0.00 0.00 56 1005.0
20260505220124 68 171 7.0 28.0 0.00 0.00 0.00 56 1004.9
20260505214608 69 180 11.0 28.0 0.00 0.00 0.00 54 1004.9
20260505213050 70 165 13.0 26.0 0.00 0.00 0.00 52 1004.7
20260505211608 71 192 8.0 22.0 0.00 0.00 0.00 52 1004.6
20260505210044 71 232 12.0 25.0 0.00 0.00 0.00 51 1004.6